Погода в Малышеве

Россия / Владимирская область     55°43′27″N   41°32′13″E
темп.,
°C
ветер,
м/с
пор.,
м/с
влажн.,
%
обл.,
%
осадки,
мм/ч
давл.,
гПа
погр.,
м
1 марта, пн
пн100:00−11с129799 0.1 102121
03:00−11зсз229795 0.1 102225
06:00−8з2296100 0.1 102368
09:00−7зюз259597 0.1 1024151
12:00−3зюз479089 0.1 1023521
15:00−1зюз588793 0.1 1021769
18:00−2зюз51190100 0.1 1018608
21:00−1зюз61293100 0.1 1015748
2 марта, вт
вт200:00+1з61392100 0.0 1011717
03:00+1з61395100 0.1 1009681
06:00+1з61294100 0.0 1006887
09:00+1зсз51097100 0.5 1006794
12:00+1сз6118777 0.2 10051187
15:000сз6108681 0.4 10051213
18:00−2зсз41195100 0.2 1005669
21:00−2сз5119397 0.4 1006851
3 марта, ср
ср300:00−3сз5128885 0.1 1007828
03:00−7сз5128851 0.1 1008601
06:00−8сз5139095 0.1 1009683
09:00−7сз6138598 0.1 1011705
12:00−4сз610819 0.0 10111062
15:00−2сз598154 0.1 10111081
18:00−3зсз4119186 0.1 1011506
21:00−3зсз5129289 0.1 1011614
4 марта, чт
чт400:00−4з4119289 0.1 1010503
03:00−3зюз4119495 0.1 1008509
06:00−2зюз61390100 0.1 1005736
09:00−1юз71689100 0.4 1001811
12:00+1зюз71586100 0.0 9981269
15:00+1зюз81487100 0.1 9961200
18:000зюз71495100 0.2 995996
21:00−3зсз41281100 1.8 997740
5 марта, пт
пт500:00−5зсз41185100 0.0 1000546
03:00−8зсз3109351 0.0 1003329
06:00−10зсз399423 0.0 1006279
09:00−9сз368815 0.0 1008273
12:00−5ссз22690 0.0 1010504
15:00−4з11657 0.0 1011740
18:00−8ю128333 0.0 101121
21:00−9ю228864 0.0 101222